Date,TemperatureHighF,TemperatureAvgF,TemperatureLowF,DewpointHighF,DewpointAvgF,DewpointLowF,HumidityHigh,HumidityAvg,HumidityLow,PressureMaxIn,PressureMinIn,WindSpeedMaxMPH,WindSpeedAvgMPH,GustSpeedMaxMPH,PrecipitationSumIn
2014-1-1,24,22,20,-100,-100,-100,0,0,100,0.00,40.00,0,-999,0,0.00
2014-1-2,38,32,26,-100,-100,-100,0,0,100,0.00,40.00,0,-999,0,0.00
2014-1-3,35,24,15,-100,-100,-100,0,0,100,0.00,40.00,0,-999,0,0.00
2014-1-4,13,10,7,-100,-100,-100,0,0,100,0.00,40.00,0,-999,0,0.00
2014-1-5,10,6,3,-100,-100,-100,0,0,100,0.00,40.00,0,-999,0,0.00
2014-1-7,33,29,27,-100,-100,-100,0,0,100,0.00,40.00,0,-999,0,0.01
2014-1-8,28,27,25,-100,-100,-100,0,0,100,0.00,40.00,0,-999,0,0.00
2014-1-9,23,23,23,-100,-100,-100,0,0,100,0.00,40.00,0,-999,0,0.00
2014-1-10,25,24,23,-100,-100,-100,0,0,100,0.00,40.00,0,-999,0,0.00
2014-1-11,36,32,22,-100,-100,-100,0,0,100,0.00,40.00,0,-999,0,0.02
2014-1-12,24,20,18,-100,-100,-100,0,0,100,0.00,40.00,0,-999,0,0.01
2014-1-13,28,27,26,-100,-100,-100,0,0,100,0.00,40.00,0,-999,0,0.00
2014-1-14,29,26,25,-100,-100,-100,0,0,100,0.00,40.00,0,-999,0,0.00
2014-1-15,34,32,29,-100,-100,-100,0,0,100,0.00,40.00,0,-999,0,0.00
2014-1-16,32,29,26,-100,-100,-100,0,0,100,0.00,40.00,0,-999,0,0.00
2014-1-17,36,33,32,-100,-100,-100,0,0,100,0.00,40.00,0,-999,0,0.00
2014-1-18,40,34,29,-100,-100,-100,0,0,100,0.00,40.00,0,-999,0,0.00
2014-1-19,37,35,31,-100,-100,-100,0,0,100,0.00,40.00,0,-999,0,0.00
2014-1-20,33,21,14,-100,-100,-100,0,0,100,0.00,40.00,0,-999,0,0.00
2014-1-21,36,35,32,-100,-100,-100,0,0,100,0.00,40.00,0,-999,0,0.00
2014-1-22,31,28,24,-100,-100,-100,0,0,100,0.00,40.00,0,-999,0,0.00
2014-1-23,30,19,9,-100,-100,-100,0,0,100,0.00,40.00,0,-999,0,0.00
2014-1-24,39,36,34,-100,-100,-100,0,0,100,0.00,40.00,0,-999,0,0.01
2014-1-25,36,34,32,-100,-100,-100,0,0,100,0.00,40.00,0,-999,0,0.00
2014-1-26,34,19,11,-100,-100,-100,0,0,100,0.00,40.00,0,-999,0,0.00
2014-1-27,13,10,7,-100,-100,-100,0,0,100,0.00,40.00,0,-999,0,0.00
2014-1-28,29,28,28,-100,-100,-100,0,0,100,0.00,40.00,0,-999,0,0.00
2014-1-29,32,29,25,-100,-100,-100,0,0,100,0.00,40.00,0,-999,0,0.01
2014-1-30,22,19,15,-100,-100,-100,0,0,100,0.00,40.00,0,-999,0,0.01
2014-1-31,18,16,13,-100,-100,-100,0,0,100,0.00,40.00,0,-999,0,0.01
2014-2-1,14,8,3,-100,-100,-100,0,0,100,0.00,40.00,0,-999,0,0.00
2014-2-2,19,12,5,-100,-100,-100,0,0,100,0.00,40.00,0,-999,0,0.00
2014-2-3,14,4,-17,-100,-100,-100,0,0,100,0.00,40.00,0,-999,0,0.00
2014-2-4,-11,-17,-22,-100,-100,-100,0,0,100,0.00,40.00,0,-999,0,0.00
2014-2-5,-14,-23,-30,-100,-100,-100,0,0,100,0.00,40.00,0,-999,0,0.00
2014-2-6,1,-10,-23,-100,-100,-100,0,0,100,0.00,40.00,0,-999,0,0.00
2014-2-7,17,15,4,-100,-100,-100,0,0,100,0.00,40.00,0,-999,0,0.01
2014-2-12,34,29,25,-100,-100,-100,0,0,100,0.00,40.00,0,-999,0,0.00
2014-2-13,29,24,20,-100,-100,-100,0,0,100,0.00,40.00,0,-999,0,0.02
2014-2-14,31,26,23,-100,-100,-100,0,0,100,0.00,40.00,0,-999,0,0.00
2014-2-15,34,28,18,-100,-100,-100,0,0,100,0.00,40.00,0,-999,0,0.01
2014-2-16,34,24,15,-100,-100,-100,0,0,100,0.00,40.00,0,-999,0,0.01
2014-2-17,27,23,17,-100,-100,-100,0,0,100,0.00,40.00,0,-999,0,0.00
2014-2-18,28,26,23,-100,-100,-100,0,0,100,0.00,40.00,0,-999,0,0.00
2014-2-19,18,14,13,-100,-100,-100,0,0,100,0.00,40.00,0,-999,0,0.01
2014-2-20,23,18,11,-100,-100,-100,0,0,100,0.00,40.00,0,-999,0,0.01
2014-2-21,18,16,13,-100,-100,-100,0,0,100,0.00,40.00,0,-999,0,0.02
2014-2-22,15,12,8,-100,-100,-100,0,0,100,0.00,40.00,0,-999,0,0.01
2014-2-23,26,18,10,-100,-100,-100,0,0,100,0.00,40.00,0,-999,0,0.02
2014-2-24,26,25,24,-100,-100,-100,0,0,100,0.00,40.00,0,-999,0,0.00
2014-2-25,24,15,9,-100,-100,-100,0,0,100,0.00,40.00,0,-999,0,0.01
2014-2-26,40,20,10,-100,-100,-100,0,0,100,0.00,40.00,0,-999,0,0.00
2014-2-27,40,34,29,-100,-100,-100,0,0,100,0.00,40.00,0,-999,0,0.01
2014-2-28,29,12,-6,-100,-100,-100,0,0,100,0.00,40.00,0,-999,0,0.02
2014-3-1,-1,-12,-16,-100,-100,-100,0,0,100,0.00,40.00,0,-999,0,0.00
2014-3-2,33,29,23,-100,-100,-100,0,0,100,0.00,40.00,0,-999,0,0.01
2014-3-3,35,29,26,-100,-100,-100,0,0,100,0.00,40.00,0,-999,0,0.02
2014-3-4,31,27,24,-100,-100,-100,0,0,100,0.00,40.00,0,-999,0,0.01
2014-3-5,39,32,27,-100,-100,-100,0,0,100,0.00,40.00,0,-999,0,0.00
2014-3-6,37,32,27,-100,-100,-100,0,0,100,0.00,40.00,0,-999,0,0.02
2014-3-7,32,26,23,-100,-100,-100,0,0,100,0.00,40.00,0,-999,0,0.01
2014-3-8,44,31,19,-100,-100,-100,0,0,100,0.00,40.00,0,-999,0,0.00
2014-3-9,43,40,37,-100,-100,-100,0,0,100,0.00,40.00,0,-999,0,0.00
2014-3-10,34,30,24,-100,-100,-100,0,0,100,0.00,40.00,0,-999,0,0.03
2014-3-11,30,23,11,-100,-100,-100,0,0,100,0.00,40.00,0,-999,0,0.02
2014-3-12,36,23,11,-100,-100,-100,0,0,100,0.00,40.00,0,-999,0,0.01
2014-3-13,38,30,26,-100,-100,-100,0,0,100,0.00,40.00,0,-999,0,0.00
2014-3-14,39,30,23,-100,-100,-100,0,0,100,0.00,40.00,0,-999,0,0.00
2014-3-15,32,23,20,-100,-100,-100,0,0,100,0.00,40.00,0,-999,0,0.00
2014-3-16,43,38,36,-100,-100,-100,0,0,100,0.00,40.00,0,-999,0,0.00
2014-3-17,34,29,21,-100,-100,-100,0,0,100,0.00,40.00,0,-999,0,0.01
2014-3-18,26,20,16,-100,-100,-100,0,0,100,0.00,40.00,0,-999,0,0.01
2014-3-19,33,30,27,-100,-100,-100,0,0,100,0.00,40.00,0,-999,0,0.00
2014-3-20,27,20,13,-100,-100,-100,0,0,100,0.00,40.00,0,-999,0,0.00
2014-3-21,21,10,2,-100,-100,-100,0,0,100,0.00,40.00,0,-999,0,0.00
2014-3-22,30,17,6,-100,-100,-100,0,0,100,0.00,40.00,0,-999,0,0.00
2014-3-23,27,23,21,-100,-100,-100,0,0,100,0.00,40.00,0,-999,0,0.00
2014-3-24,38,26,13,-100,-100,-100,0,0,100,0.00,40.00,0,-999,0,0.00
2014-3-25,50,37,31,-100,-100,-100,0,0,100,0.00,40.00,0,-999,0,0.00
2014-3-26,32,31,29,-100,-100,-100,0,0,100,0.00,40.00,0,-999,0,0.00
2014-3-27,31,23,17,-100,-100,-100,0,0,100,0.00,40.00,0,-999,0,0.01
2014-3-28,38,26,22,-100,-100,-100,0,0,100,0.00,40.00,0,-999,0,0.00
2014-3-29,36,32,30,-100,-100,-100,0,0,100,0.00,40.00,0,-999,0,0.02
2014-3-30,32,26,21,-100,-100,-100,0,0,100,0.00,40.00,0,-999,0,0.01
2014-3-31,32,21,8,-100,-100,-100,0,0,100,0.00,40.00,0,-999,0,0.01
2014-4-1,40,30,18,-100,-100,-100,0,0,100,0.00,40.00,0,-999,0,0.00
2014-4-2,31,22,14,-100,-100,-100,0,0,100,0.00,40.00,0,-999,0,0.00
2014-4-3,39,28,17,-100,-100,-100,0,0,100,0.00,40.00,0,-999,0,0.00
2014-4-4,38,30,26,-100,-100,-100,0,0,100,0.00,40.00,0,-999,0,0.00
2014-4-5,36,27,22,-100,-100,-100,0,0,100,0.00,40.00,0,-999,0,0.00
2014-4-6,34,31,27,-100,-100,-100,0,0,100,0.00,40.00,0,-999,0,0.01
2014-4-7,43,36,28,-100,-100,-100,0,0,100,0.00,40.00,0,-999,0,0.01
2014-4-8,52,46,40,-100,-100,-100,0,0,100,0.00,40.00,0,-999,0,0.00
2014-4-9,41,38,29,-100,-100,-100,0,0,100,0.00,40.00,0,-999,0,0.00
2014-4-10,44,32,26,-100,-100,-100,0,0,100,0.00,40.00,0,-999,0,0.00
2014-4-11,51,37,31,-100,-100,-100,0,0,100,0.00,40.00,0,-999,0,0.00
2014-4-12,41,30,17,-100,-100,-100,0,0,100,0.00,40.00,0,-999,0,0.01
2014-4-13,32,20,12,-100,-100,-100,0,0,100,0.00,40.00,0,-999,0,0.00
2014-4-14,36,25,14,-100,-100,-100,0,0,100,0.00,40.00,0,-999,0,0.00
2014-4-15,30,27,24,-100,-100,-100,0,0,100,0.00,40.00,0,-999,0,0.00
2014-4-16,24,24,23,-100,-100,-100,0,0,100,0.00,40.00,0,-999,0,0.00
2014-4-17,44,37,29,-100,-100,-100,0,0,100,0.00,40.00,0,-999,0,0.00
2014-4-18,40,30,25,-100,-100,-100,0,0,100,0.00,40.00,0,-999,0,0.01
2014-4-19,52,37,23,-100,-100,-100,0,0,100,0.00,40.00,0,-999,0,0.01
2014-4-20,46,34,27,-100,-100,-100,0,0,100,0.00,40.00,0,-999,0,0.01
2014-4-21,55,39,26,-100,-100,-100,0,0,100,0.00,40.00,0,-999,0,0.00
2014-4-22,46,38,26,-100,-100,-100,0,0,100,0.00,40.00,0,-999,0,0.01
2014-4-23,34,26,20,-100,-100,-100,0,0,100,0.00,40.00,0,-999,0,0.02
2014-4-24,41,33,27,-100,-100,-100,0,0,100,0.00,40.00,0,-999,0,0.01
2014-4-25,41,34,25,-100,-100,-100,0,0,100,0.00,40.00,0,-999,0,0.04
2014-4-26,37,31,26,-100,-100,-100,0,0,100,0.00,40.00,0,-999,0,0.04
2014-4-27,40,27,19,-100,-100,-100,0,0,100,0.00,40.00,0,-999,0,0.01
2014-4-28,32,24,20,-100,-100,-100,0,0,100,0.00,40.00,0,-999,0,0.01
2014-4-29,43,28,17,-100,-100,-100,0,0,100,0.00,40.00,0,-999,0,0.01
2014-4-30,54,34,20,-100,-100,-100,0,0,100,0.00,40.00,0,-999,0,0.00
2014-5-1,62,43,30,-100,-100,-100,0,0,100,0.00,40.00,0,-999,0,0.00
2014-5-2,62,48,39,-100,-100,-100,0,0,100,0.00,40.00,0,-999,0,0.01
2014-5-3,54,44,36,-100,-100,-100,0,0,100,0.00,40.00,0,-999,0,0.01
2014-5-4,47,38,32,-100,-100,-100,0,0,100,0.00,40.00,0,-999,0,0.00
2014-5-5,41,37,32,-100,-100,-100,0,0,100,0.00,40.00,0,-999,0,0.00
2014-5-6,41,35,28,-100,-100,-100,0,0,100,0.00,40.00,0,-999,0,0.00
2014-5-13,46,44,43,-100,-100,-100,0,0,100,0.00,40.00,0,-999,0,0.00
2014-5-14,57,39,26,-100,-100,-100,0,0,100,0.00,40.00,0,-999,0,0.00
2014-5-15,63,48,35,-100,-100,-100,0,0,100,0.00,40.00,0,-999,0,0.00
2014-5-16,53,42,33,-100,-100,-100,0,0,100,0.00,40.00,0,-999,0,0.00
2014-5-17,56,44,35,-100,-100,-100,0,0,100,0.00,40.00,0,-999,0,0.00
2014-5-18,45,38,32,-100,-100,-100,0,0,100,0.00,40.00,0,-999,0,0.01
2014-5-19,47,36,32,-100,-100,-100,0,0,100,0.00,40.00,0,-999,0,0.00
2014-5-20,55,38,28,-100,-100,-100,0,0,100,0.00,40.00,0,-999,0,0.01
2014-5-21,62,50,37,-100,-100,-100,0,0,100,0.00,40.00,0,-999,0,0.01
2014-5-22,65,48,33,-100,-100,-100,0,0,100,0.00,40.00,0,-999,0,0.01
2014-5-23,68,49,35,-100,-100,-100,0,0,100,0.00,40.00,0,-999,0,0.00
2014-5-24,50,42,35,-100,-100,-100,0,0,100,0.00,40.00,0,-999,0,0.01
2014-5-25,61,44,30,-100,-100,-100,0,0,100,0.00,40.00,0,-999,0,0.00
2014-5-26,61,47,38,-100,-100,-100,0,0,100,0.00,40.00,0,-999,0,0.00
2014-5-27,57,43,33,-100,-100,-100,0,0,100,0.00,40.00,0,-999,0,0.00
2014-5-28,54,46,37,-100,-100,-100,0,0,100,0.00,40.00,0,-999,0,0.00
2014-5-29,51,37,30,-100,-100,-100,0,0,100,0.00,40.00,0,-999,0,0.00
2014-5-30,56,44,29,-100,-100,-100,0,0,100,0.00,40.00,0,-999,0,0.00
2014-5-31,54,42,36,-100,-100,-100,0,0,100,0.00,40.00,0,-999,0,0.00
2014-6-1,51,41,34,-100,-100,-100,0,0,100,0.00,40.00,0,-999,0,0.00
2014-6-2,59,46,34,-100,-100,-100,0,0,100,0.00,40.00,0,-999,0,0.00
2014-6-3,56,44,35,-100,-100,-100,0,0,100,0.00,40.00,0,-999,0,0.00
2014-6-4,54,45,36,-100,-100,-100,0,0,100,0.00,40.00,0,-999,0,0.00
2014-6-5,57,51,41,-100,-100,-100,0,0,100,0.00,40.00,0,-999,0,0.00
2014-6-6,54,42,32,-100,-100,-100,0,0,100,0.00,40.00,0,-999,0,0.00
2014-6-7,55,41,31,-100,-100,-100,0,0,100,0.00,40.00,0,-999,0,0.00
2014-6-8,56,44,34,-100,-100,-100,0,0,100,0.00,40.00,0,-999,0,0.00
2014-6-9,60,48,40,-100,-100,-100,0,0,100,0.00,40.00,0,-999,0,0.00
2014-6-10,56,46,35,-100,-100,-100,0,0,100,0.00,40.00,0,-999,0,0.00
2014-6-11,57,41,32,-100,-100,-100,0,0,100,0.00,40.00,0,-999,0,0.00
2014-6-12,63,50,37,-100,-100,-100,0,0,100,0.00,40.00,0,-999,0,0.00
2014-6-13,43,39,33,-100,-100,-100,0,0,100,0.00,40.00,0,-999,0,0.00
2014-6-14,38,34,30,-100,-100,-100,0,0,100,0.00,40.00,0,-999,0,0.00
2014-6-15,52,38,34,-100,-100,-100,0,0,100,0.00,40.00,0,-999,0,0.01
2014-6-16,46,36,33,-100,-100,-100,0,0,100,0.00,40.00,0,-999,0,0.02
2014-6-17,41,35,31,-100,-100,-100,0,0,100,0.00,40.00,0,-999,0,0.03
2014-6-18,44,35,28,-100,-100,-100,0,0,100,0.00,40.00,0,-999,0,0.01
2014-6-19,55,45,36,-100,-100,-100,0,0,100,0.00,40.00,0,-999,0,0.02
2014-6-20,59,48,42,-100,-100,-100,0,0,100,0.00,40.00,0,-999,0,0.01
2014-6-21,60,47,35,-100,-100,-100,0,0,100,0.00,40.00,0,-999,0,0.01
2014-6-22,50,44,37,-100,-100,-100,0,0,100,0.00,40.00,0,-999,0,0.00
2014-6-23,57,43,36,-100,-100,-100,0,0,100,0.00,40.00,0,-999,0,0.01
2014-6-24,62,47,41,-100,-100,-100,0,0,100,0.00,40.00,0,-999,0,0.01
2014-6-25,54,45,38,-100,-100,-100,0,0,100,0.00,40.00,0,-999,0,0.01
2014-6-26,54,47,42,-100,-100,-100,0,0,100,0.00,40.00,0,-999,0,0.01
2014-6-27,52,43,39,-100,-100,-100,0,0,100,0.00,40.00,0,-999,0,0.00
2014-6-28,48,42,37,-100,-100,-100,0,0,100,0.00,40.00,0,-999,0,0.01
2014-6-29,52,45,38,-100,-100,-100,0,0,100,0.00,40.00,0,-999,0,0.01
2014-6-30,58,45,37,-100,-100,-100,0,0,100,0.00,40.00,0,-999,0,0.01
2014-7-1,63,49,36,-100,-100,-100,0,0,100,0.00,40.00,0,-999,0,0.01
2014-7-2,76,60,48,-100,-100,-100,0,0,100,0.00,40.00,0,-999,0,0.01
2014-7-3,69,54,45,-100,-100,-100,0,0,100,0.00,40.00,0,-999,0,0.01
2014-7-4,70,57,45,-100,-100,-100,0,0,100,0.00,40.00,0,-999,0,0.00
2014-7-5,73,59,47,-100,-100,-100,0,0,100,0.00,40.00,0,-999,0,0.00
2014-7-6,73,61,51,-100,-100,-100,0,0,100,0.00,40.00,0,-999,0,0.01
2014-7-7,68,55,48,-100,-100,-100,0,0,100,0.00,40.00,0,-999,0,0.00
2014-7-8,73,57,45,-100,-100,-100,0,0,100,0.00,40.00,0,-999,0,0.00
2014-7-9,65,54,45,-100,-100,-100,0,0,100,0.00,40.00,0,-999,0,0.00
2014-7-10,73,61,52,-100,0,200,0,0,100,0.00,40.00,0,0,0,0.00
2014-7-11,72,56,45,-100,0,200,0,0,100,0.00,40.00,0,0,0,0.00
2014-7-12,66,57,45,-100,0,200,0,0,100,0.00,40.00,0,0,0,0.00
2014-7-13,71,59,49,-100,0,200,0,0,100,0.00,40.00,0,0,0,0.00
2014-7-14,60,56,53,-100,0,200,0,0,100,0.00,40.00,0,0,0,0.00
2014-7-15,62,52,47,-100,0,200,0,0,100,0.00,40.00,0,0,0,0.00